Location: Hagen
(51.3456°N, 7.4557°E)
Time: 16:10:03
(UTC+02:00)

OTV 5 (USA 277) - Visible Passes

Search period start: 22 April 2018 00:00
Search period end: 02 May 2018 00:00
Orbit: 310 x 323 km, 54.5° (Epoch: 21 April)

Date Brightness Start Highest point End Pass type
(mag) Time Alt. Az. Time Alt. Az. Time Alt. Az.
22 Apr ? 00:00:55 10° WNW 00:01:30 15° WNW 00:01:30 15° WNW visible
22 Apr ? 22:40:50 10° W 22:43:28 43° N 22:44:46 23° NE visible
23 Apr ? 00:15:25 10° WNW 00:15:39 12° WNW 00:15:39 12° WNW visible
23 Apr ? 21:20:45 10° WSW 21:23:29 74° NNW 21:26:12 10° ENE visible
23 Apr ? 22:55:26 10° WNW 22:58:02 39° N 22:58:47 31° NE visible
24 Apr ? 21:35:19 10° W 21:37:59 49° NNW 21:40:38 10° ENE visible
24 Apr ? 23:09:58 10° WNW 23:12:35 43° N 23:12:42 42° NNE visible
25 Apr ? 21:49:55 10° WNW 21:52:32 40° N 21:55:08 10° ENE visible
25 Apr ? 23:24:25 10° WNW 23:26:33 45° NW 23:26:33 45° NW visible
26 Apr ? 22:04:30 10° WNW 22:07:06 40° N 22:09:30 11° ENE visible
26 Apr ? 23:38:51 10° WNW 23:40:22 29° WNW 23:40:22 29° WNW visible
27 Apr ? 22:18:59 10° WNW 22:21:39 48° NNE 22:23:18 19° E visible
27 Apr ? 23:53:22 10° WNW 23:54:10 17° W 23:54:10 17° W visible
28 Apr ? 22:33:26 10° WNW 22:36:09 73° NNE 22:37:05 36° E visible
29 Apr ? 22:47:53 10° WNW 22:50:35 61° SSW 22:50:52 55° S visible
30 Apr ? 21:28:00 10° WNW 21:30:42 58° NNE 21:33:23 10° E visible
30 Apr ? 23:02:28 10° W 23:04:41 29° SW 23:04:41 29° SW visible
01 May ? 21:42:26 10° WNW 21:45:10 85° SSW 21:47:39 12° ESE visible
01 May ? 23:17:26 10° W 23:18:31 14° WSW 23:18:31 14° WSW visible
